Starlink 35116

operational
NORAD ID: 66077 Int'l Des: 2025-235 Owner: SPXS Country: US Constellation: starlink
NOTLE

Starlink 35116について

説明を読み込み中...

リアルタイム位置

3D地球を読み込み中...

次回通過

高度履歴

Altitude vs Time

uPlot chart will show altitude changes over time

軌道要素

1 66077C 25235W 25293.08381944 .00513170 00000+0 75829-3 0 2938
2 66077 53.1589 188.7711 0005578 295.8355 291.6079 16.03684934 13
Epoch: Oct 20, 2025 • Age: 19 hours

現在のステータス

高度 271.5 km
速度 7.75 km/s
衛星直下点 52.61°N, 57.63°W
打ち上げ日 Oct 19, 2025
運用期間 1 days
タイプ internet

技術仕様

分類 Payload
質量 575.00 kg
乾燥質量 530.00 kg
総質量 575.00 kg
長さ 0.30 m
直径 4.10 m
スパン 29.00 m
形状 Box + pan
製造者 SPXS
バスタイプ Starlink V2MO
フェーズステータス In Orbit
所有者/国 SPXS/US

大規模コンステレーション

Loading constellations...